| time (UTC) | temp C | wind direction | speed KPH | gust KPH | rain 1hr cm | rain 24hr cm | rain mn cm | humidity % | barometer mb |
| 20260507155204 | 16 | 293 | 3.2 | 14.5 | 0.00 | 0.61 | 0.46 | 49 | 1006.0 |
| 20260507154704 | 16 | 242 | 4.8 | 11.3 | 0.00 | 0.61 | 0.46 | 54 | 1006.0 |
| 20260507154204 | 16 | 272 | 3.2 | 12.9 | 0.00 | 0.61 | 0.46 | 60 | 1005.9 |
| 20260507152206 | 14 | 292 | 9.7 | 19.3 | 0.00 | 0.61 | 0.46 | 64 | 1006.1 |
| 20260507145704 | 13 | 257 | 3.2 | 12.9 | 0.00 | 0.61 | 0.46 | 71 | 1006.2 |
| 20260507145204 | 13 | 287 | 6.4 | 12.9 | 0.00 | 0.61 | 0.46 | 72 | 1006.3 |
| 20260507144704 | 13 | 277 | 3.2 | 11.3 | 0.00 | 0.61 | 0.46 | 73 | 1006.4 |
| 20260507142204 | 12 | 280 | 4.8 | 11.3 | 0.00 | 0.61 | 0.46 | 79 | 1006.6 |
| 20260507141704 | 12 | 281 | 3.2 | 4.8 | 0.00 | 0.61 | 0.46 | 80 | 1006.6 |
| 20260507141205 | 12 | 281 | 4.8 | 12.9 | 0.00 | 0.61 | 0.46 | 80 | 1006.7 |
| 20260507140704 | 12 | 281 | 4.8 | 12.9 | 0.00 | 0.61 | 0.46 | 81 | 1006.7 |
| 20260507140206 | 12 | 261 | 3.2 | 9.7 | 0.00 | 0.61 | 0.46 | 84 | 1006.7 |
| 20260507135206 | 11 | 261 | 1.6 | 9.7 | 0.00 | 0.61 | 0.46 | 87 | 1006.6 |
| 20260507133705 | 10 | 256 | 3.2 | 11.3 | 0.00 | 0.61 | 0.46 | 91 | 1006.6 |
| 20260507132704 | 10 | 244 | 3.2 | 4.8 | 0.00 | 0.61 | 0.46 | 93 | 1006.7 |
| 20260507131706 | 10 | 253 | 1.6 | 8.0 | 0.00 | 0.61 | 0.46 | 94 | 1006.8 |
| 20260507130705 | 10 | 276 | 1.6 | 8.0 | 0.00 | 0.61 | 0.46 | 94 | 1006.7 |
| 20260507125704 | 10 | 352 | 1.6 | 4.8 | 0.00 | 0.61 | 0.46 | 94 | 1007.0 |
| 20260507125204 | 10 | 338 | 1.6 | 4.8 | 0.00 | 0.61 | 0.46 | 94 | 1007.0 |
| 20260507124704 | 9 | 291 | 1.6 | 4.8 | 0.00 | 0.61 | 0.46 | 94 | 1006.9 |
| 20260507123704 | 10 | 276 | 1.6 | 3.2 | 0.00 | 0.61 | 0.46 | 94 | 1006.7 |
| 20260507122205 | 10 | 353 | 0.0 | 3.2 | 0.00 | 0.61 | 0.46 | 94 | 1007.1 |
| 20260507121706 | 10 | 342 | 0.0 | 3.2 | 0.00 | 0.61 | 0.46 | 94 | 1007.1 |
| 20260507121205 | 10 | 344 | 1.6 | 4.8 | 0.00 | 0.61 | 0.46 | 94 | 1007.2 |
| 20260507115204 | 10 | 337 | 1.6 | 4.8 | 0.00 | 0.61 | 0.46 | 94 | 1006.7 |
| 20260507114704 | 10 | 347 | 0.0 | 1.6 | 0.00 | 0.61 | 0.46 | 94 | 1006.8 |
| 20260507112705 | 9 | 314 | 0.0 | 1.6 | 0.03 | 0.61 | 0.46 | 94 | 1006.8 |
| 20260507112205 | 9 | 311 | 0.0 | 1.6 | 0.03 | 0.61 | 0.46 | 94 | 1006.7 |
| 20260507111706 | 9 | 311 | 0.0 | 1.6 | 0.03 | 0.61 | 0.46 | 94 | 1006.7 |
| 20260507110204 | 9 | 321 | 0.0 | 1.6 | 0.05 | 0.61 | 0.46 | 93 | 1006.5 |
| 20260507105704 | 9 | 301 | 0.0 | 0.0 | 0.05 | 0.61 | 0.46 | 93 | 1006.6 |
| 20260507105204 | 9 | 333 | 0.0 | 0.0 | 0.08 | 0.61 | 0.46 | 93 | 1006.4 |
| 20260507104205 | 9 | 294 | 0.0 | 1.6 | 0.08 | 0.61 | 0.46 | 93 | 1006.0 |
| 20260507103704 | 9 | 350 | 0.0 | 0.0 | 0.08 | 0.61 | 0.46 | 93 | 1006.1 |
| 20260507102705 | 9 | 284 | 0.0 | 0.0 | 0.08 | 0.58 | 0.43 | 93 | 1006.3 |
| 20260507101204 | 9 | 289 | 0.0 | 1.6 | 0.10 | 0.58 | 0.43 | 93 | 1006.5 |
| 20260507100703 | 9 | 276 | 0.0 | 0.0 | 0.08 | 0.56 | 0.41 | 93 | 1006.3 |
| 20260507093704 | 9 | 311 | 0.0 | 3.2 | 0.13 | 0.53 | 0.38 | 92 | 1005.8 |
| 20260507085704 | 10 | 291 | 3.2 | 4.8 | 0.20 | 0.48 | 0.33 | 91 | 1005.8 |
| 20260507084206 | 10 | 277 | 0.0 | 1.6 | 0.18 | 0.43 | 0.28 | 91 | 1006.1 |
| 20260507083204 | 10 | 306 | 0.0 | 1.6 | 0.18 | 0.41 | 0.25 | 90 | 1006.0 |
| 20260507082704 | 10 | 276 | 1.6 | 1.6 | 0.18 | 0.38 | 0.23 | 90 | 1006.1 |
| 20260507081204 | 10 | 276 | 1.6 | 3.2 | 0.13 | 0.30 | 0.15 | 90 | 1005.8 |
| 20260507080203 | 10 | 284 | 0.0 | 0.0 | 0.10 | 0.28 | 0.13 | 89 | 1005.9 |
| 20260507075704 | 11 | 307 | 0.0 | 3.2 | 0.10 | 0.28 | 0.13 | 89 | 1006.4 |
| 20260507074705 | 11 | 339 | 1.6 | 11.3 | 0.08 | 0.25 | 0.10 | 89 | 1006.0 |
| 20260507074207 | 11 | 314 | 1.6 | 3.2 | 0.08 | 0.25 | 0.10 | 89 | 1006.1 |
| 20260507073204 | 11 | 282 | 1.6 | 4.8 | 0.05 | 0.23 | 0.08 | 89 | 1006.2 |
| 20260507072204 | 11 | 350 | 1.6 | 4.8 | 0.00 | 0.18 | 0.03 | 89 | 1005.5 |
| 20260507070704 | 11 | 0 | 0.0 | 3.2 | 0.00 | 0.18 | 0.03 | 89 | 1004.8 |
| 20260507070203 | 11 | 0 | 1.6 | 3.2 | 0.00 | 0.18 | 0.03 | 90 | 1004.9 |
| 20260507065704 | 11 | 0 | 1.6 | 8.0 | 0.00 | 0.18 | 0.03 | 90 | 1004.9 |
| 20260507065205 | 12 | 344 | 3.2 | 4.8 | 0.00 | 0.18 | 0.03 | 90 | 1005.1 |
| 20260507064705 | 12 | 277 | 1.6 | 4.8 | 0.00 | 0.18 | 0.03 | 91 | 1005.0 |
| 20260507064206 | 12 | 278 | 1.6 | 9.7 | 0.00 | 0.18 | 0.03 | 91 | 1004.9 |
| 20260507063704 | 12 | 276 | 4.8 | 11.3 | 0.00 | 0.18 | 0.03 | 91 | 1005.0 |
| 20260507060705 | 13 | 268 | 0.0 | 4.8 | 0.00 | 0.18 | 0.03 | 92 | 1005.1 |
| 20260507060204 | 13 | 267 | 0.0 | 3.2 | 0.00 | 0.18 | 0.03 | 92 | 1005.0 |
| 20260507055204 | 13 | 268 | 3.2 | 9.7 | 0.00 | 0.18 | 0.03 | 92 | 1005.2 |
| 20260507054205 | 13 | 267 | 1.6 | 4.8 | 0.00 | 0.18 | 0.03 | 93 | 1005.3 |
| 20260507053705 | 13 | 267 | 1.6 | 4.8 | 0.00 | 0.18 | 0.03 | 93 | 1005.3 |
| 20260507052704 | 13 | 276 | 3.2 | 11.3 | 0.00 | 0.18 | 0.03 | 93 | 1005.5 |
| 20260507052203 | 13 | 282 | 1.6 | 4.8 | 0.00 | 0.18 | 0.03 | 93 | 1005.5 |
| 20260507051703 | 13 | 282 | 1.6 | 4.8 | 0.00 | 0.18 | 0.03 | 93 | 1005.5 |
| 20260507051204 | 13 | 282 | 1.6 | 4.8 | 0.00 | 0.18 | 0.03 | 93 | 1005.4 |
| 20260507050704 | 14 | 282 | 1.6 | 4.8 | 0.00 | 0.18 | 0.03 | 93 | 1005.2 |
| 20260507050204 | 14 | 282 | 1.6 | 4.8 | 0.03 | 0.18 | 0.03 | 93 | 1005.2 |
| 20260507045704 | 14 | 282 | 3.2 | 9.7 | 0.03 | 0.18 | 0.03 | 93 | 1005.3 |
| 20260507043206 | 15 | 219 | 1.6 | 4.8 | 0.03 | 0.18 | 0.03 | 93 | 1005.2 |
| 20260507042205 | 15 | 219 | 1.6 | 4.8 | 0.03 | 0.18 | 0.03 | 93 | 1005.3 |
| 20260507041204 | 15 | 219 | 1.6 | 4.8 | 0.03 | 0.18 | 0.03 | 93 | 1005.3 |
| 20260507035704 | 15 | 219 | 1.6 | 4.8 | 0.00 | 0.15 | 0.15 | 93 | 1005.3 |
| 20260507035204 | 15 | 219 | 3.2 | 9.7 | 0.00 | 0.15 | 0.15 | 93 | 1005.3 |
| 20260507034705 | 15 | 197 | 3.2 | 11.3 | 0.00 | 0.15 | 0.15 | 93 | 1005.3 |
| 20260507034205 | 15 | 186 | 1.6 | 4.8 | 0.00 | 0.15 | 0.15 | 93 | 1005.4 |
| 20260507032204 | 15 | 171 | 3.2 | 9.7 | 0.00 | 0.15 | 0.15 | 94 | 1005.2 |
| 20260507031704 | 15 | 174 | 3.2 | 8.0 | 0.00 | 0.15 | 0.15 | 94 | 1005.1 |
| 20260507031204 | 15 | 175 | 6.4 | 14.5 | 0.00 | 0.15 | 0.15 | 94 | 1005.0 |
| 20260507030204 | 15 | 171 | 3.2 | 8.0 | 0.00 | 0.15 | 0.15 | 94 | 1005.1 |
| 20260507025704 | 15 | 171 | 4.8 | 11.3 | 0.00 | 0.15 | 0.15 | 94 | 1005.1 |
| 20260507025203 | 15 | 171 | 1.6 | 4.8 | 0.00 | 0.15 | 0.15 | 94 | 1005.1 |
| 20260507024704 | 15 | 171 | 3.2 | 9.7 | 0.00 | 0.15 | 0.15 | 94 | 1005.1 |
| 20260507024207 | 15 | 169 | 3.2 | 9.7 | 0.00 | 0.15 | 0.15 | 93 | 1004.9 |
| 20260507023703 | 15 | 171 | 3.2 | 9.7 | 0.00 | 0.15 | 0.15 | 93 | 1004.8 |
| 20260507023204 | 15 | 171 | 4.8 | 11.3 | 0.00 | 0.15 | 0.15 | 93 | 1004.9 |
| 20260507022705 | 15 | 171 | 3.2 | 8.0 | 0.00 | 0.15 | 0.15 | 93 | 1004.9 |
| 20260507021707 | 15 | 171 | 1.6 | 8.0 | 0.00 | 0.15 | 0.15 | 93 | 1005.0 |
| 20260507020204 | 15 | 171 | 4.8 | 8.0 | 0.00 | 0.15 | 0.15 | 93 | 1005.0 |
| 20260507015704 | 14 | 171 | 3.2 | 12.9 | 0.00 | 0.15 | 0.15 | 93 | 1004.9 |
| 20260507014205 | 14 | 171 | 4.8 | 11.3 | 0.00 | 0.15 | 0.15 | 93 | 1005.1 |
| 20260507012204 | 14 | 178 | 3.2 | 9.7 | 0.00 | 0.15 | 0.15 | 93 | 1005.2 |
| 20260507011704 | 14 | 178 | 3.2 | 14.5 | 0.00 | 0.15 | 0.15 | 93 | 1005.3 |
| 20260507010204 | 14 | 180 | 3.2 | 8.0 | 0.00 | 0.15 | 0.15 | 93 | 1005.4 |
| 20260507002703 | 14 | 190 | 4.8 | 11.3 | 0.03 | 0.15 | 0.15 | 92 | 1005.3 |
| 20260507001204 | 14 | 181 | 4.8 | 11.3 | 0.03 | 0.15 | 0.15 | 92 | 1005.1 |
| 20260507000208 | 14 | 184 | 3.2 | 11.3 | 0.03 | 0.15 | 0.15 | 92 | 1005.1 |
| 20260506234204 | 14 | 173 | 3.2 | 11.3 | 0.03 | 0.15 | 0.15 | 92 | 1005.0 |
| 20260506233703 | 14 | 173 | 1.6 | 4.8 | 0.03 | 0.15 | 0.15 | 92 | 1005.0 |
| 20260506233204 | 14 | 173 | 3.2 | 9.7 | 0.00 | 0.13 | 0.13 | 92 | 1005.0 |
| 20260506232204 | 15 | 196 | 3.2 | 11.3 | 0.00 | 0.13 | 0.13 | 92 | 1005.0 |
| 20260506231704 | 15 | 183 | 3.2 | 8.0 | 0.00 | 0.13 | 0.13 | 92 | 1005.0 |
| 20260506230204 | 15 | 185 | 3.2 | 11.3 | 0.00 | 0.13 | 0.13 | 92 | 1005.1 |
| 20260506225703 | 15 | 190 | 3.2 | 8.0 | 0.00 | 0.13 | 0.13 | 92 | 1005.1 |
| 20260506225203 | 15 | 191 | 3.2 | 12.9 | 0.03 | 0.13 | 0.13 | 92 | 1005.1 |
| 20260506224705 | 15 | 171 | 4.8 | 14.5 | 0.03 | 0.13 | 0.13 | 92 | 1005.1 |
| 20260506224204 | 15 | 179 | 3.2 | 8.0 | 0.03 | 0.13 | 0.13 | 92 | 1005.1 |
| 20260506223704 | 15 | 179 | 3.2 | 19.3 | 0.03 | 0.13 | 0.13 | 92 | 1005.0 |
| 20260506220704 | 15 | 183 | 8.0 | 16.1 | 0.03 | 0.13 | 0.13 | 91 | 1005.3 |
| 20260506212705 | 15 | 186 | 1.6 | 9.7 | 0.05 | 0.10 | 0.10 | 90 | 1005.7 |
| 20260506211703 | 15 | 178 | 3.2 | 11.3 | 0.05 | 0.10 | 0.10 | 90 | 1005.7 |
| 20260506211206 | 15 | 178 | 4.8 | 14.5 | 0.05 | 0.10 | 0.10 | 90 | 1005.8 |
| 20260506210704 | 15 | 183 | 4.8 | 14.5 | 0.05 | 0.10 | 0.10 | 90 | 1005.7 |
| 20260506210203 | 15 | 192 | 4.8 | 14.5 | 0.05 | 0.10 | 0.10 | 89 | 1005.7 |
| 20260506204704 | 16 | 189 | 4.8 | 14.5 | 0.05 | 0.08 | 0.08 | 89 | 1005.8 |
| 20260506204204 | 16 | 176 | 4.8 | 11.3 | 0.05 | 0.08 | 0.08 | 89 | 1005.9 |
| 20260506203704 | 16 | 183 | 4.8 | 11.3 | 0.03 | 0.05 | 0.05 | 89 | 1005.9 |
| 20260506203204 | 16 | 1 | 4.8 | 14.5 | 0.03 | 0.05 | 0.05 | 88 | 1005.9 |
| 20260506202706 | 16 | 180 | 6.4 | 16.1 | 0.03 | 0.05 | 0.05 | 88 | 1006.0 |
| 20260506200204 | 16 | 0 | 6.4 | 14.5 | 0.05 | 0.05 | 0.05 | 87 | 1006.1 |
| 20260506193705 | 17 | 355 | 6.4 | 14.5 | 0.03 | 0.03 | 0.03 | 84 | 1006.1 |
| 20260506191704 | 18 | 0 | 8.0 | 22.5 | 0.00 | 0.00 | 0.00 | 81 | 1006.2 |
| 20260506190704 | 18 | 0 | 6.4 | 14.5 | 0.00 | 0.00 | 0.00 | 78 | 1006.2 |
| 20260506190206 | 18 | 354 | 8.0 | 19.3 | 0.00 | 0.00 | 0.00 | 77 | 1006.3 |
| 20260506185203 | 19 | 165 | 9.7 | 20.9 | 0.00 | 0.00 | 0.00 | 74 | 1006.3 |
| 20260506184704 | 20 | 208 | 9.7 | 19.3 | 0.00 | 0.00 | 0.00 | 73 | 1006.3 |
| 20260506184203 | 20 | 202 | 3.2 | 12.9 | 0.00 | 0.00 | 0.00 | 73 | 1006.3 |
| 20260506182203 | 20 | 14 | 4.8 | 22.5 | 0.00 | 0.00 | 0.00 | 70 | 1006.5 |
| 20260506180204 | 21 | 180 | 8.0 | 19.3 | 0.00 | 0.00 | 0.00 | 68 | 1006.6 |
| 20260506175704 | 21 | 304 | 6.4 | 12.9 | 0.00 | 0.00 | 0.00 | 67 | 1006.6 |
| 20260506173704 | 21 | 0 | 9.7 | 29.0 | 0.00 | 0.00 | 0.00 | 66 | 1006.7 |
| 20260506173204 | 22 | 0 | 9.7 | 20.9 | 0.00 | 0.00 | 0.00 | 65 | 1006.8 |
| 20260506172705 | 22 | 0 | 8.0 | 20.9 | 0.00 | 0.00 | 0.00 | 65 | 1006.8 |
| 20260506171204 | 22 | 188 | 11.3 | 24.1 | 0.00 | 0.00 | 0.00 | 64 | 1006.8 |
| 20260506170703 | 22 | 193 | 9.7 | 38.6 | 0.00 | 0.00 | 0.00 | 64 | 1006.8 |
| 20260506165205 | 22 | 184 | 8.0 | 25.7 | 0.00 | 0.00 | 0.00 | 64 | 1006.8 |
| 20260506164203 | 22 | 0 | 11.3 | 35.4 | 0.00 | 0.00 | 0.00 | 65 | 1006.9 |
| 20260506163205 | 22 | 0 | 8.0 | 27.4 | 0.00 | 0.00 | 0.00 | 66 | 1007.1 |
| 20260506162703 | 22 | 0 | 8.0 | 19.3 | 0.00 | 0.00 | 0.00 | 65 | 1007.2 |
| 20260506162205 | 22 | 0 | 12.9 | 25.7 | 0.00 | 0.00 | 0.00 | 65 | 1007.2 |
| 20260506161208 | 22 | 243 | 8.0 | 32.2 | 0.00 | 0.00 | 0.00 | 64 | 1007.3 |